DW2921 Weather Reports


Display with metric or nautical units.
time (UTC)temp
F
wind
direction
speed
MPH
gust
MPH
rain 1hr
in
rain 24hr
in
rain mn
in
humidity
%
barometer
mb
20260901212103 96 355 0.0 0.0 0.00 0.00 0.00 50 1013.0
20260901210104 97 78 0.0 0.0 0.00 0.00 0.00 50 1013.0
20260901204103 97 35 0.0 0.0 0.00 0.00 0.00 50 1013.0
20260901202103 97 49 0.0 0.0 0.00 0.00 0.00 50 1013.0
20260901201103 96 72 0.0 0.0 0.00 0.00 0.00 50 1013.0
20260901200104 94 0 0.0 0.0 0.00 0.00 0.00 50 1013.0
20260901195103 95 358 0.0 0.0 0.00 0.00 0.00 50 1013.0
20260901194103 96 322 0.0 0.0 0.00 0.00 0.00 50 1013.0
20260901193103 95 77 0.0 0.0 0.00 0.00 0.00 50 1013.0
20260901192103 94 70 0.0 0.0 0.00 0.00 0.00 50 1013.0
20260901191103 94 331 0.0 0.0 0.00 0.00 0.00 50 1013.0
20260901190104 95 209 0.0 0.0 0.00 0.00 0.00 50 1013.0
20260901184103 91 342 0.0 0.0 0.00 0.00 0.00 50 1013.0
20260901175103 93 279 0.0 0.0 0.00 0.00 0.00 50 1013.0
20260901174103 92 43 0.0 0.0 0.00 0.00 0.00 50 1013.0
20260901171103 91 189 0.0 0.0 0.00 0.00 0.00 50 1013.0
20260901165104 88 251 0.0 0.0 0.00 0.00 0.00 50 1013.0
20260901164104 87 350 0.0 0.0 0.00 0.00 0.00 50 1013.0
20260901162103 87 226 0.0 0.0 0.00 0.00 0.00 50 1013.0
20260901161103 87 203 0.0 0.0 0.00 0.00 0.00 50 1013.0
20260901160104 86 220 0.0 0.0 0.00 0.00 0.00 50 1013.0
20260901155103 86 260 0.0 0.0 0.00 0.00 0.00 50 1013.0
20260901153104 85 203 0.0 0.0 0.00 0.00 0.00 50 1013.0
20260901152103 84 221 0.0 0.0 0.00 0.00 0.00 50 1013.0
20260901151103 83 227 0.0 0.0 0.00 0.00 0.00 50 1013.0
20260901150104 83 225 0.0 0.0 0.00 0.00 0.00 50 1013.0
20260901145103 82 214 0.0 0.0 0.00 0.00 0.00 50 1013.0
20260901144104 81 227 0.0 0.0 0.00 0.00 0.00 50 1013.0
20260901143104 80 203 0.0 0.0 0.00 0.00 0.00 50 1013.0
20260901142103 80 104 0.0 0.0 0.00 0.00 0.00 50 1013.0
20260901141103 79 104 0.0 0.0 0.00 0.00 0.00 50 1013.0
20260901135103 78 122 0.0 0.0 0.00 0.00 0.00 50 1013.0
20260901134103 77 122 0.0 0.0 0.00 0.00 0.00 50 1013.0
20260901133103 76 122 0.0 0.0 0.00 0.00 0.00 50 1013.0
20260901132103 76 142 0.0 0.0 0.00 0.00 0.00 50 1013.0
20260901131103 75 143 0.0 0.0 0.00 0.00 0.00 50 1013.0
20260901130103 75 143 0.0 0.0 0.00 0.00 0.00 50 1013.0
20260901125103 74 81 0.0 0.0 0.00 0.00 0.00 50 1013.0
20260901124103 73 62 0.0 0.0 0.00 0.00 0.00 50 1013.0
20260901122103 72 62 0.0 0.0 0.00 0.00 0.00 50 1013.0
20260901121104 72 62 0.0 0.0 0.00 0.00 0.00 50 1013.0
20260901120104 72 62 0.0 0.0 0.00 0.00 0.00 50 1013.0
20260901115103 72 62 0.0 0.0 0.00 0.00 0.00 50 1013.0
20260901114103 71 62 0.0 0.0 0.00 0.00 0.00 50 1013.0
20260901113104 71 62 0.0 0.0 0.00 0.00 0.00 50 1013.0
20260901112103 71 62 0.0 0.0 0.00 0.00 0.00 50 1013.0
20260901111103 71 62 0.0 0.0 0.00 0.00 0.00 50 1013.0
20260901110104 71 62 0.0 0.0 0.00 0.00 0.00 50 1013.0
20260901105103 72 62 0.0 0.0 0.00 0.00 0.00 50 1013.0
20260901104104 72 62 0.0 0.0 0.00 0.00 0.00 50 1013.0
20260901103103 72 62 0.0 0.0 0.00 0.00 0.00 50 1013.0
20260901102104 72 62 0.0 0.0 0.00 0.00 0.00 50 1013.0
20260901101103 72 62 0.0 0.0 0.00 0.00 0.00 50 1013.0
20260901100104 73 62 0.0 0.0 0.00 0.00 0.00 50 1013.0
20260901095103 73 62 0.0 0.0 0.00 0.00 0.00 50 1013.0
20260901093103 73 62 0.0 0.0 0.00 0.00 0.00 50 1013.0
20260901091104 73 62 0.0 0.0 0.00 0.00 0.00 50 1013.0
20260901090104 73 62 0.0 0.0 0.00 0.00 0.00 50 1013.0
20260901085103 74 62 0.0 0.0 0.00 0.00 0.00 50 1013.0
20260901084104 74 62 0.0 0.0 0.00 0.00 0.00 50 1013.0
20260901081103 74 62 0.0 0.0 0.00 0.00 0.00 50 1013.0
20260901080104 74 62 0.0 0.0 0.00 0.00 0.00 50 1013.0
20260901073103 75 62 0.0 0.0 0.00 0.00 0.00 50 1013.0
20260901072103 75 62 0.0 0.0 0.00 0.00 0.00 50 1013.0
20260901071103 75 62 0.0 0.0 0.00 0.00 0.00 50 1013.0
20260901070104 76 62 0.0 0.0 0.00 0.00 0.00 50 1013.0
20260901065104 76 62 0.0 0.0 0.00 0.00 0.00 50 1013.0
20260901064103 76 62 0.0 0.0 0.00 0.00 0.00 50 1013.0
20260901063104 76 62 0.0 0.0 0.00 0.00 0.00 50 1013.0
20260901061104 76 62 0.0 0.0 0.00 0.00 0.00 50 1013.0
20260901060104 76 62 0.0 0.0 0.00 0.00 0.00 50 1013.0
20260901055104 77 62 0.0 0.0 0.00 0.00 0.00 50 1013.0
20260901054104 77 62 0.0 0.0 0.00 0.00 0.00 50 1013.0
20260901053104 77 62 0.0 0.0 0.00 0.00 0.00 50 1013.0
20260901051103 78 62 0.0 0.0 0.00 0.00 0.00 50 1013.0
20260901050104 78 62 0.0 0.0 0.00 0.00 0.00 50 1013.0
20260901045104 78 62 0.0 0.0 0.00 0.00 0.00 50 1013.0
20260901044103 78 62 0.0 0.0 0.00 0.00 0.00 50 1013.0
20260901041103 79 62 0.0 0.0 0.00 0.00 0.00 50 1013.0
20260901040104 79 62 0.0 0.0 0.00 0.00 0.00 50 1013.0
20260901035104 79 62 0.0 0.0 0.00 0.00 0.00 50 1013.0
20260901034104 79 62 0.0 0.0 0.00 0.00 0.00 50 1013.0
20260901033103 80 62 0.0 0.0 0.00 0.00 0.00 50 1013.0
20260901032104 80 62 0.0 0.0 0.00 0.00 0.00 50 1013.0
20260901031104 80 62 0.0 0.0 0.00 0.00 0.00 50 1013.0
20260901025104 81 62 0.0 0.0 0.00 0.00 0.00 50 1013.0
20260901024103 81 62 0.0 0.0 0.00 0.00 0.00 50 1013.0
20260901023104 81 62 0.0 0.0 0.00 0.00 0.00 50 1013.0
20260901022104 81 62 0.0 0.0 0.00 0.00 0.00 50 1013.0
20260901021104 82 62 0.0 0.0 0.00 0.00 0.00 50 1013.0
20260901020104 82 62 0.0 0.0 0.00 0.00 0.00 50 1013.0
20260901015104 82 62 0.0 0.0 0.00 0.00 0.00 50 1013.0
20260901014103 83 62 0.0 0.0 0.00 0.00 0.00 50 1013.0
20260901013103 83 62 0.0 0.0 0.00 0.00 0.00 50 1013.0
20260901012104 83 62 0.0 0.0 0.00 0.00 0.00 50 1013.0
20260901011104 83 62 0.0 0.0 0.00 0.00 0.00 50 1013.0
20260901010105 84 62 0.0 0.0 0.00 0.00 0.00 50 1013.0
20260901004104 84 62 0.0 0.0 0.00 0.00 0.00 50 1013.0
20260901003104 85 62 0.0 0.0 0.00 0.00 0.00 50 1013.0
20260901001104 86 62 0.0 0.0 0.00 0.00 0.00 50 1013.0
20260831234104 87 62 0.0 0.0 0.00 0.00 0.00 50 1013.0
20260831233104 87 62 0.0 0.0 0.00 0.00 0.00 50 1013.0
20260831232104 87 62 0.0 0.0 0.00 0.00 0.00 50 1013.0
20260831231104 88 62 0.0 0.0 0.00 0.00 0.00 50 1013.0
20260831230104 88 62 0.0 0.0 0.00 0.00 0.00 50 1013.0
20260831225103 88 62 0.0 0.0 0.00 0.00 0.00 50 1013.0
20260831224104 89 62 0.0 0.0 0.00 0.00 0.00 50 1013.0
20260831223104 89 62 0.0 0.0 0.00 0.00 0.00 50 1013.0
20260831222104 90 62 0.0 0.0 0.00 0.00 0.00 50 1013.0
20260831221103 91 62 0.0 0.0 0.00 0.00 0.00 50 1013.0
20260831220104 92 62 0.0 0.0 0.00 0.00 0.00 50 1013.0
20260831215104 93 77 0.0 0.0 0.00 0.00 0.00 50 1013.0
20260831214104 93 77 0.0 0.0 0.00 0.00 0.00 50 1013.0
20260831213104 93 242 0.0 0.0 0.00 0.00 0.00 50 1013.0